Погода в Знаменском

Россия / Чеченская Республика     43°40′39″N   45°07′30″E
темп.,
°C
ветер,
м/с
пор.,
м/с
влажн.,
%
обл.,
%
осадки,
мм/ч
давл.,
гПа
погр.,
м
28 сентября, вт
вт2800:00+15зсз3560100 0.0 1017373
03:00+14сз126698 0.0 1017134
06:00+14с226869 0.0 101786
09:00+16всв225294 0.0 1018493
12:00+18св324371 0.0 10181074
15:00+18ссв2241100 0.0 10191406
18:00+16с4552100 0.0 1021423
21:00+13с3473100 0.6 1022221
29 сентября, ср
ср2900:00+14ссв1168100 0.0 1021281
03:00+14св1366100 0.0 1022375
06:00+14св3468100 0.0 1022425
09:00+14в4564100 0.0 1023646
12:00+14всв4556100 0.0 1023740
15:00+15всв3552100 0.0 1023931
18:00+14св3652100 0.0 1023343
21:00+14всв4657100 0.0 1024491
30 сентября, чт
чт3000:00+13всв4660100 0.0 1024655
03:00+12св5752100 0.0 1025683
06:00+11всв4668100 0.1 1027449
09:00+11всв4557100 0.1 1028592
12:00+11всв3457100 0.0 1028636
15:00+12всв2359100 0.0 1027584
18:00+12в2564100 0.0 1027774
21:00+11в4877100 0.0 1028747
1 октября, пт
пт100:00+12в4858100 0.0 1027774
03:00+11всв51066100 0.1 1027950
06:00+12в71157100 0.0 10261074
09:00+12в71262100 0.0 10271155
12:00+13в81364100 0.1 10261257
15:00+12в71270100 0.6 10261164
18:00+12всв61278100 0.4 10271031
21:00+11всв71382100 4.6 1028920
2 октября, сб
сб200:00+11всв71284100 1.4 1027987
03:00+11в61282100 2.6 1027795
06:00+12в51067100 0.2 1027632
09:00+12в4962100 0.2 1027740
12:00+15в685693 0.0 10271263
15:00+16в6860100 0.0 10261281
18:00+14в7115876 0.0 1027797
21:00+14в61162100 0.0 1027726